Temp
67 66 66 65 65 64 64 63 63 63 63 63 63 63 63 63 63 63 63 63 63 64 64 64 64 62 57 49 51 64 69 67 66 66 60 58 57 56 54 57 57 55 59 60 62 62 61
67 66 65 65 65 64 64 63 63 63 63 63 63 63 63 63 62 62 62 63 63 63 63 63 63 61 53 43 61 66 63 62 63 62 59 60 59 61 57 57 58 59 60 62 61 62 61
66 66 65 65 65 64 64 63 63 63 63 63 63 63 63 62 62 62 62 63 63 63 62 62 62 57 51 49 61 61 62 60 62 63 57 62 62 63 61 57 60 59 56 58 59 61 61
66 67 65 65 65 64 64 63 62 62 63 63 63 63 62 62 61 61 62 62 63 62 62 61 61 54 46 61 63 60 61 59 62 63 62 64 64 61 61 63 59 56 55 49 58 60 60
66 66 66 65 64 64 64 63 62 62 62 62 63 62 62 62 61 61 60 61 62 61 61 61 53 50 45 62 54 59 60 55 59 59 61 65 61 58 59 53 50 51 44 47 51 59 58
65 65 65 64 64 64 64 63 63 62 62 62 62 62 62 62 61 60 60 59 60 59 58 58 55 45 49 49 55 57 58 59 54 56 55 56 54 51 53 49 41 43 47 49 48 56 54
65 65 65 64 64 63 63 63 63 62 62 62 61 61 61 61 59 58 57 54 47 46 50 45 45 46 51 56 59 55 57 56 55 52 45 51 48 45 50 53 53 50 51 50 51 55 53
64 65 64 64 64 63 63 62 62 62 61 61 61 61 61 60 58 58 56 47 50 52 41 49 50 50 54 55 48 53 59 49 47 43 49 48 44 53 53 52 52 49 48 47 51 54 53
64 64 64 64 63 63 62 62 61 61 61 60 60 60 59 58 57 56 52 52 57 56 42 45 49 48 49 53 47 49 54 51 47 45 45 45 49 57 53 49 49 48 47 46 48 51 52
63 64 64 63 63 62 61 61 61 60 60 59 59 60 59 57 53 53 50 54 54 53 34 38 41 47 51 51 44 55 57 53 48 44 47 47 53 53 51 48 50 44 51 52 49 47 42
63 63 63 63 62 62 61 61 60 60 60 59 59 59 59 56 52 50 52 54 53 48 23 41 42 56 51 47 48 47 58 54 45 46 48 44 48 49 47 50 52 47 53 51 50 47 43
63 63 62 62 62 61 61 60 60 60 59 58 58 58 58 54 53 54 54 54 50 32 23 36 44 41 42 45 47 50 50 54 55 49 50 47 54 54 53 53 54 52 49 47 46 44 37
62 62 62 61 61 61 61 60 60 60 59 58 58 58 55 56 51 55 54 48 32 27 38 35 37 41 41 39 42 45 43 42 40 36 38 44 47 50 52 49 51 51 46 35 32 34 36
62 62 61 61 61 61 60 60 60 60 59 58 57 57 56 56 56 55 51 39 28 37 34 44 41 41 38 41 41 43 41 37 45 43 40 37 36 46 50 48 45 46 46 38 32 33 37
62 61 61 61 61 60 60 60 59 59 58 57 57 54 52 55 56 54 42 31 34 38 40 40 40 35 38 42 42 41 40 40 44 44 41 38 39 47 51 52 52 42 41 48 39 37 36
62 61 60 60 61 60 60 60 59 58 58 57 51 49 50 57 56 49 37 35 38 43 47 44 35 39 33 38 35 40 40 48 45 48 48 44 37 46 50 53 51 48 51 40 40 34 32
62 61 60 60 60 59 59 59 58 58 58 56 49 41 53 57 54 45 35 36 42 49 50 44 41 37 41 37 37 39 39 47 50 49 47 45 42 40 48 46 43 44 40 42 43 39 35
61 61 60 60 59 58 58 58 58 58 56 52 43 41 54 55 42 43 39 42 47 49 51 47 46 46 41 41 38 41 40 45 54 53 45 47 41 36 40 45 49 49 46 46 39 35 35
58 62 60 59 58 58 58 58 58 58 56 44 40 47 54 52 40 40 45 45 48 48 49 47 45 48 46 42 39 44 46 51 53 53 46 49 40 34 40 44 44 43 45 44 42 40 34
57 60 60 59 58 57 57 57 57 57 56 46 42 42 47 48 47 44 44 44 45 51 50 51 47 51 46 43 44 41 44 49 52 55 54 53 42 39 36 39 42 38 40 41 44 37 36
56 59 60 59 58 57 57 57 57 57 56 48 40 40 45 40 43 43 45 45 44 44 48 50 47 46 48 40 40 40 44 47 51 51 51 52 42 41 40 43 44 43 43 41 41 46 43
55 57 59 59 58 57 57 56 56 56 55 47 39 39 40 43 43 42 43 43 44 43 45 46 46 47 49 45 43 39 44 45 46 47 46 48 41 41 38 42 43 41 42 44 43 41 42
54 55 59 59 58 57 56 56 56 56 54 43 42 42 43 45 44 44 44 43 43 45 46 47 49 49 47 47 47 49 49 49 50 47 44 45 42 40 38 40 41 37 41 40 43 42 47
54 55 56 58 57 57 56 55 55 56 53 44 43 43 41 43 44 45 47 45 44 47 45 45 49 49 48 49 49 52 50 49 53 45 48 42 41 40 34 38 29 42 43 45 43 43 45
53 55 55 58 57 56 56 56 56 56 55 45 43 43 40 41 43 44 45 42 43 45 43 44 44 45 49 49 44 41 43 44 43 43 44 45 43 36 34 32 38 40 41 41 42 41 44
53 54 54 57 57 56 56 55 55 55 55 46 43 44 41 41 41 43 42 42 41 40 43 42 46 47 49 46 42 36 34 38 37 39 43 43 44 43 30 30 33 42 45 48 47 39 45
52 53 54 57 56 56 55 55 55 55 55 48 44 45 42 41 40 40 41 42 43 40 40 42 43 45 46 42 38 34 36 39 37 36 37 38 37 36 35 33 37 45 47 48 37 41 45
51 52 53 56 56 56 55 55 55 55 54 50 46 46 44 41 40 42 43 41 41 41 41 41 45 45 40 40 39 36 37 36 35 37 37 38 34 33 33 32 33 46 46 42 44 43 44
51 52 52 55 55 55 55 55 54 54 54 52 44 47 46 43 43 44 45 44 44 45 41 38 42 40 42 37 34 33 34 34 35 35 37 37 41 37 38 37 42 42 43 43 45 44 43
MSLP
1015.04 1014.97 1014.91 1014.84 1014.87 1014.80 1014.94 1014.91 1014.83 1014.87 1014.79 1014.89 1014.94 1014.86 1014.82 1014.86 1015.11 1015.13 1015.18 1015.11 1015.04 1015.05 1015.12 1015.29 1015.45 1015.81 1016.50 1016.31 1014.97 1014.34 1014.25 1014.58 1014.18 1014.93 1015.35 1015.34 1015.36 1015.17 1015.12 1015.29 1015.66 1015.57 1015.26 1014.89 1014.67 1014.69 1014.60
1014.72 1014.61 1014.53 1014.41 1014.40 1014.32 1014.39 1014.44 1014.46 1014.45 1014.38 1014.53 1014.62 1014.50 1014.54 1014.57 1014.78 1014.88 1014.90 1014.80 1014.88 1014.87 1014.92 1015.13 1015.40 1015.84 1016.17 1015.48 1014.76 1014.57 1014.70 1014.67 1014.74 1014.83 1015.00 1014.85 1014.58 1014.18 1014.46 1014.56 1014.75 1014.61 1014.70 1014.52 1014.43 1014.30 1014.23
1014.42 1014.21 1014.14 1014.10 1014.03 1013.96 1013.92 1014.00 1014.05 1014.09 1014.06 1014.11 1014.22 1014.23 1014.21 1014.21 1014.54 1014.61 1014.61 1014.58 1014.57 1014.58 1014.75 1014.90 1015.19 1015.74 1015.89 1014.92 1014.53 1014.69 1014.76 1014.78 1014.73 1014.73 1014.81 1014.47 1014.36 1013.89 1013.52 1014.07 1013.95 1014.26 1014.68 1014.52 1014.22 1014.00 1013.77
1014.00 1013.80 1013.71 1013.59 1013.60 1013.56 1013.53 1013.61 1013.69 1013.67 1013.67 1013.62 1013.67 1013.77 1013.82 1013.86 1014.18 1014.28 1014.29 1014.27 1014.22 1014.31 1014.49 1014.83 1015.25 1015.84 1015.20 1014.36 1014.26 1014.53 1014.43 1014.55 1014.38 1014.36 1014.58 1014.56 1014.42 1013.94 1013.12 1013.09 1013.67 1014.13 1014.62 1014.47 1013.98 1013.84 1013.43
1013.52 1013.42 1013.29 1013.18 1013.08 1013.05 1013.03 1013.04 1013.11 1013.14 1013.25 1013.11 1013.12 1013.32 1013.38 1013.53 1013.74 1013.84 1013.88 1013.77 1013.83 1014.21 1014.55 1014.98 1015.73 1015.90 1014.89 1013.70 1013.97 1013.88 1014.17 1014.69 1014.46 1014.20 1014.28 1014.46 1014.18 1013.50 1013.00 1012.92 1013.77 1013.94 1014.10 1014.19 1014.15 1013.34 1013.49
1013.09 1013.03 1012.92 1012.80 1012.67 1012.55 1012.53 1012.58 1012.58 1012.63 1012.79 1012.69 1012.63 1012.81 1012.89 1013.02 1013.25 1013.44 1013.47 1013.41 1013.64 1014.20 1014.69 1015.03 1015.42 1015.98 1014.68 1013.86 1013.50 1013.49 1013.73 1014.06 1014.47 1014.12 1014.15 1013.98 1013.60 1012.91 1012.73 1012.63 1012.73 1013.60 1013.85 1013.93 1013.84 1013.65 1013.55
1012.74 1012.51 1012.48 1012.39 1012.30 1012.24 1012.08 1012.17 1012.21 1012.15 1012.30 1012.26 1012.18 1012.27 1012.33 1012.36 1012.79 1013.02 1013.22 1012.94 1014.02 1014.19 1013.95 1013.58 1013.92 1013.69 1013.36 1013.22 1013.32 1013.34 1013.38 1013.85 1014.35 1013.83 1013.36 1013.13 1012.18 1011.48 1011.90 1012.36 1012.54 1013.22 1013.37 1013.69 1013.59 1013.53 1013.54
1012.26 1012.03 1012.02 1011.87 1011.79 1011.83 1011.71 1011.77 1011.82 1011.67 1011.82 1011.86 1011.68 1011.68 1011.71 1011.77 1012.06 1012.19 1012.28 1011.53 1011.87 1012.09 1013.07 1013.21 1013.35 1013.42 1013.09 1013.01 1013.00 1012.75 1013.01 1013.56 1013.92 1012.95 1013.07 1012.78 1011.11 1011.48 1012.07 1012.40 1012.54 1013.03 1013.37 1013.67 1013.69 1013.56 1013.67
1011.80 1011.45 1011.48 1011.39 1011.36 1011.35 1011.32 1011.35 1011.42 1011.19 1011.26 1011.37 1011.23 1011.26 1011.37 1011.47 1011.51 1011.33 1011.10 1010.96 1011.46 1011.58 1012.52 1012.47 1012.39 1012.61 1012.59 1012.88 1012.53 1012.29 1012.74 1012.74 1012.81 1012.61 1012.29 1011.51 1010.93 1011.13 1011.60 1012.28 1012.56 1012.96 1013.19 1013.51 1013.72 1013.73 1013.57
1011.20 1010.90 1010.92 1010.90 1010.85 1010.88 1010.89 1010.92 1010.88 1010.75 1010.72 1010.81 1010.75 1010.86 1010.98 1011.14 1011.35 1010.47 1010.81 1011.02 1011.77 1012.26 1013.11 1012.00 1011.75 1011.52 1011.91 1011.93 1012.05 1011.74 1012.00 1012.05 1012.08 1011.91 1012.27 1012.08 1010.51 1010.69 1011.35 1011.94 1012.29 1012.94 1013.13 1013.18 1013.76 1014.16 1014.21
1010.61 1010.40 1010.31 1010.37 1010.28 1010.26 1010.30 1010.36 1010.28 1010.18 1010.09 1010.22 1010.32 1010.48 1010.54 1010.67 1010.62 1010.53 1010.83 1011.40 1012.02 1013.28 1012.77 1010.90 1010.76 1010.18 1010.45 1011.00 1010.90 1011.04 1011.28 1011.81 1011.42 1011.27 1012.00 1011.05 1010.58 1010.50 1010.99 1011.42 1012.16 1012.95 1013.04 1013.63 1014.08 1014.35 1014.55
1009.99 1009.91 1009.76 1009.74 1009.69 1009.55 1009.64 1009.73 1009.65 1009.49 1009.49 1009.57 1009.79 1009.97 1010.13 1010.30 1010.26 1010.05 1010.43 1011.08 1012.01 1012.86 1011.26 1010.40 1010.01 1010.01 1010.58 1010.77 1010.54 1010.80 1011.27 1011.61 1010.84 1011.15 1011.58 1010.63 1010.38 1010.46 1010.79 1011.53 1012.04 1012.77 1013.37 1014.32 1014.61 1014.83 1014.73
1009.30 1009.26 1009.23 1009.15 1009.12 1009.02 1009.03 1009.08 1009.02 1008.92 1008.88 1008.92 1009.15 1009.44 1009.77 1009.56 1009.54 1009.62 1010.37 1011.24 1011.94 1011.02 1010.42 1009.94 1009.68 1009.90 1010.08 1010.52 1010.81 1010.68 1010.87 1010.98 1010.36 1011.06 1011.53 1010.88 1010.42 1010.60 1010.80 1011.68 1012.29 1012.48 1013.52 1014.90 1015.70 1015.87 1014.47
1008.48 1008.49 1008.49 1008.50 1008.51 1008.52 1008.46 1008.43 1008.40 1008.38 1008.35 1008.35 1008.56 1008.90 1009.00 1009.29 1009.48 1009.50 1010.08 1010.88 1010.23 1008.69 1009.09 1008.78 1009.03 1009.89 1009.96 1010.16 1010.57 1010.53 1010.69 1010.85 1010.62 1010.30 1010.79 1010.65 1010.78 1010.49 1010.85 1011.31 1011.68 1012.52 1012.94 1013.86 1014.24 1014.75 1014.34
1007.65 1007.68 1007.80 1007.82 1007.90 1007.89 1007.86 1007.84 1007.88 1007.87 1007.89 1007.83 1008.06 1008.41 1008.50 1008.28 1008.83 1009.20 1009.76 1009.82 1008.22 1007.67 1007.95 1007.77 1008.80 1009.44 1009.62 1009.76 1009.97 1010.10 1010.28 1010.13 1010.42 1010.03 1009.70 1010.37 1010.57 1010.19 1010.28 1010.51 1011.00 1013.04 1012.93 1013.22 1013.97 1014.58 1014.40
1006.76 1006.95 1007.03 1007.15 1007.32 1007.34 1007.34 1007.31 1007.31 1007.35 1007.40 1007.50 1007.84 1008.10 1007.54 1007.32 1008.27 1008.92 1009.41 1008.25 1007.24 1006.70 1006.57 1006.88 1007.44 1008.35 1008.97 1009.16 1009.49 1009.35 1009.60 1009.20 1009.72 1009.38 1008.82 1009.23 1010.27 1010.42 1010.52 1010.59 1011.38 1011.53 1012.21 1013.64 1013.84 1014.12 1014.07
1005.87 1006.13 1006.28 1006.47 1006.64 1006.73 1006.86 1006.80 1006.88 1006.88 1006.95 1007.12 1007.64 1007.73 1006.91 1007.16 1008.14 1008.50 1008.01 1007.30 1006.09 1005.35 1005.23 1005.64 1006.29 1007.31 1007.80 1008.38 1009.02 1008.71 1008.76 1008.37 1008.52 1008.65 1008.89 1008.70 1009.23 1010.72 1010.45 1010.34 1010.83 1011.79 1012.59 1013.33 1013.56 1013.49 1013.49
1005.14 1005.23 1005.48 1005.83 1006.00 1006.15 1006.36 1006.34 1006.44 1006.46 1006.74 1007.19 1007.45 1007.24 1006.53 1006.84 1007.51 1007.17 1006.52 1005.98 1004.84 1004.47 1004.25 1004.51 1005.08 1005.83 1006.45 1007.50 1008.34 1008.26 1007.80 1007.25 1007.47 1007.51 1008.08 1007.93 1008.82 1010.29 1010.45 1010.33 1010.25 1010.77 1011.67 1012.58 1012.74 1013.75 1013.81
1004.89 1004.46 1004.71 1005.09 1005.39 1005.60 1005.84 1005.92 1005.93 1006.05 1006.31 1007.10 1007.18 1006.62 1006.46 1006.49 1006.11 1005.59 1005.05 1004.60 1004.15 1003.77 1003.57 1003.73 1004.13 1004.56 1005.51 1006.51 1007.18 1007.15 1007.01 1006.73 1006.71 1006.79 1006.86 1007.18 1008.32 1010.00 1010.73 1010.92 1010.97 1010.94 1011.45 1011.92 1012.20 1012.66 1013.19
1004.42 1003.97 1003.99 1004.44 1004.78 1005.08 1005.30 1005.49 1005.45 1005.64 1005.94 1006.53 1007.03 1006.48 1006.42 1006.42 1005.19 1004.71 1003.99 1003.72 1003.45 1003.13 1003.14 1003.07 1003.34 1003.78 1004.86 1005.75 1005.62 1006.32 1006.35 1006.11 1006.07 1006.22 1006.26 1006.53 1007.58 1008.24 1008.65 1008.81 1009.71 1010.78 1011.04 1011.58 1011.66 1012.62 1012.65
1004.21 1003.42 1003.32 1003.81 1004.15 1004.47 1004.71 1004.99 1005.02 1005.24 1005.53 1006.19 1006.65 1005.59 1004.86 1005.18 1004.44 1004.10 1003.67 1003.34 1003.13 1003.10 1003.13 1003.20 1003.27 1003.24 1003.60 1004.62 1005.29 1005.62 1005.89 1005.87 1006.03 1006.14 1006.72 1006.70 1007.52 1008.22 1008.58 1008.62 1008.93 1009.47 1010.13 1010.72 1011.06 1010.93 1011.27
1003.97 1003.18 1002.64 1003.09 1003.44 1003.72 1004.18 1004.48 1004.59 1004.81 1005.19 1005.99 1006.05 1005.29 1004.76 1004.06 1003.44 1003.37 1003.31 1002.94 1003.06 1003.15 1003.20 1002.84 1002.74 1003.00 1003.38 1003.66 1003.98 1004.51 1004.49 1005.15 1005.50 1006.30 1006.66 1007.05 1007.91 1008.48 1009.12 1009.14 1009.17 1009.50 1009.69 1010.09 1010.42 1010.60 1010.57
1003.73 1003.05 1002.15 1002.36 1002.84 1003.19 1003.45 1003.95 1004.11 1004.38 1004.84 1005.39 1005.12 1004.67 1004.34 1003.60 1003.10 1002.99 1002.51 1002.63 1002.72 1002.90 1003.01 1002.70 1002.20 1002.91 1003.56 1003.42 1003.45 1003.79 1003.78 1004.05 1004.94 1006.07 1006.92 1007.70 1008.04 1008.92 1009.49 1009.49 1009.44 1009.58 1008.92 1009.38 1009.73 1009.77 1009.63
1003.35 1002.61 1001.82 1001.65 1002.23 1002.66 1002.82 1003.34 1003.59 1003.84 1004.21 1004.68 1004.65 1004.69 1004.45 1003.49 1002.97 1002.39 1002.10 1002.58 1002.95 1002.87 1002.78 1003.05 1002.79 1002.97 1003.85 1003.49 1003.61 1004.18 1004.45 1005.02 1005.23 1006.68 1006.92 1007.95 1008.82 1009.83 1009.93 1009.80 1009.47 1007.96 1007.94 1008.17 1008.77 1009.12 1009.46
1002.84 1002.05 1001.45 1001.07 1001.58 1002.02 1002.33 1002.73 1003.06 1003.25 1003.65 1004.26 1004.43 1004.56 1004.24 1003.45 1002.68 1002.43 1002.29 1002.70 1003.37 1003.16 1003.47 1003.77 1003.85 1003.92 1003.78 1003.76 1004.27 1005.12 1005.86 1006.43 1007.43 1007.54 1007.59 1007.58 1008.94 1009.54 1009.80 1009.74 1008.83 1008.20 1008.22 1008.35 1008.39 1009.19 1009.36
1002.05 1001.67 1001.15 1000.49 1000.88 1001.42 1001.81 1002.17 1002.48 1002.74 1003.11 1003.75 1003.97 1004.00 1004.18 1003.67 1002.78 1002.18 1002.50 1002.77 1003.29 1003.71 1004.14 1004.72 1004.49 1004.41 1003.86 1004.14 1004.92 1005.97 1006.58 1006.69 1007.70 1008.05 1008.06 1008.17 1008.02 1008.51 1010.07 1009.49 1008.53 1007.66 1007.47 1007.60 1008.06 1009.05 1009.25
1001.78 1001.18 1000.54 999.91 1000.41 1000.82 1001.26 1001.69 1001.92 1002.26 1002.59 1003.15 1003.38 1003.42 1003.79 1003.53 1002.81 1002.50 1002.37 1002.64 1002.97 1003.76 1004.62 1005.16 1005.10 1005.17 1005.11 1005.42 1006.07 1006.39 1006.80 1006.83 1007.33 1007.87 1008.41 1008.67 1008.89 1009.60 1009.92 1009.20 1008.34 1007.38 1007.64 1007.92 1008.96 1009.48 1009.38
1001.69 1001.13 1000.32 999.47 999.93 1000.23 1000.75 1001.16 1001.45 1001.80 1002.10 1002.64 1002.91 1002.97 1003.20 1003.33 1003.14 1002.71 1002.43 1002.57 1002.88 1003.17 1004.00 1004.97 1005.37 1005.72 1006.31 1006.34 1006.71 1007.03 1007.35 1007.49 1007.59 1007.72 1007.78 1008.19 1009.07 1009.60 1009.83 1009.54 1008.64 1007.58 1008.28 1008.49 1009.03 1009.65 1010.10
1001.19 1000.76 1000.23 999.19 999.39 999.73 1000.29 1000.71 1001.03 1001.35 1001.66 1002.15 1002.70 1002.67 1002.83 1003.14 1003.46 1003.10 1002.71 1002.65 1002.60 1002.42 1003.21 1004.40 1004.57 1004.79 1005.12 1006.08 1007.18 1007.53 1007.99 1008.08 1007.77 1008.25 1008.14 1008.26 1007.90 1008.15 1008.60 1008.52 1008.24 1008.26 1008.43 1008.63 1009.01 1009.70 1010.69
Wind_Speed
10 7 9 12 12 11 10 9 9 9 9 9 10 8 8 8 10 9 8 8 10 8 9 8 7 8 6 6 9 2 5 10 6 14 14 16 10 6 11 11 5 5 4 4 6 6 6
13 8 9 9 10 12 12 9 9 9 10 10 10 9 9 9 9 11 11 10 9 10 10 8 7 11 3 13 2 8 5 4 2 11 15 14 8 7 6 7 15 8 10 11 3 6 5
15 11 7 10 9 10 10 9 9 10 11 11 12 12 10 9 11 10 11 11 11 10 10 9 8 5 7 11 4 3 4 2 4 8 15 15 11 9 8 6 4 6 4 3 4 3 7
16 13 10 9 11 10 10 10 10 12 12 12 12 13 10 8 11 11 12 13 12 10 9 4 4 3 6 5 12 10 1 5 4 6 15 11 9 8 4 6 4 10 3 9 2 2 4
15 13 9 11 10 11 11 12 13 11 12 12 12 13 9 10 10 12 13 15 13 10 9 4 3 2 5 3 5 7 8 4 5 3 8 9 6 7 4 7 4 2 5 5 6 6 6
12 14 11 9 10 11 12 11 10 10 12 12 12 12 12 10 10 13 14 10 9 5 5 5 2 3 2 5 3 5 5 9 3 8 6 9 7 9 8 9 12 7 7 4 5 2 2
14 14 10 9 9 9 10 10 11 10 11 12 11 12 12 11 9 15 11 4 6 4 6 7 8 4 2 8 4 5 5 8 2 8 10 15 11 15 16 12 5 7 7 10 2 2 1
14 13 9 10 10 9 8 9 11 10 10 12 11 12 12 10 12 16 12 7 6 5 4 14 7 15 5 3 5 4 9 10 8 7 11 11 14 12 9 8 7 6 5 5 3 1 3
14 14 11 11 9 9 9 9 10 10 10 12 11 11 6 5 11 10 6 8 5 2 2 4 17 7 5 10 4 6 13 9 9 11 18 17 7 15 12 7 9 4 6 4 4 3 1
13 14 13 10 11 9 9 9 10 11 10 11 12 9 7 4 7 2 2 10 9 11 0 6 10 8 7 7 5 9 16 12 7 15 17 11 6 16 14 12 9 9 4 2 2 4 3
13 14 14 11 12 9 9 11 11 11 10 10 10 9 7 8 1 3 8 10 12 4 4 8 9 2 10 10 6 6 16 11 9 11 10 6 14 18 16 15 9 4 6 3 0 3 1
14 14 14 13 11 11 10 10 12 11 10 9 10 9 6 3 3 2 13 16 5 4 6 9 8 10 14 4 5 12 12 8 4 8 15 3 3 10 8 8 9 9 7 6 3 4 3
12 13 13 14 11 9 10 11 11 9 9 8 9 9 5 3 2 11 12 8 3 5 2 7 6 10 11 7 3 10 16 17 6 11 18 3 3 4 6 10 3 5 7 3 1 4 5
13 14 15 12 12 9 10 10 9 8 8 7 8 8 6 6 9 14 6 2 7 5 6 2 6 13 7 10 9 11 16 14 10 2 11 5 6 8 6 7 7 6 6 5 5 4 3
15 15 12 13 11 11 10 9 7 8 8 6 3 2 3 8 14 7 6 4 4 3 8 10 11 12 6 11 7 9 11 12 10 6 8 13 3 2 8 4 10 4 5 4 4 2 1
14 15 13 13 12 11 9 9 5 6 7 1 1 2 3 12 14 7 3 4 5 9 11 13 6 5 9 14 2 9 12 13 12 16 6 5 6 4 4 6 4 7 6 3 2 4 4
15 14 12 13 12 8 7 8 5 5 5 0 3 2 3 13 8 3 3 5 6 9 12 10 6 7 7 8 5 6 16 6 10 19 5 6 5 1 6 5 10 5 3 1 3 2 4
17 13 11 11 9 7 7 6 6 3 5 5 2 2 4 10 7 4 4 5 8 16 7 7 7 5 9 10 9 9 11 6 14 13 8 7 7 5 3 1 3 5 8 11 4 3 2
22 15 12 10 9 7 7 7 4 2 6 4 2 2 4 2 4 8 6 9 8 7 6 7 5 5 7 11 9 5 9 12 15 17 10 7 2 7 5 2 4 5 4 4 4 3 6
26 19 13 10 10 9 8 7 5 3 8 5 2 4 3 5 2 3 3 3 5 2 1 1 4 6 10 11 2 9 7 5 10 19 7 4 3 6 8 5 7 5 4 4 6 4 5
27 21 14 12 11 10 9 7 5 5 9 4 2 6 5 6 7 10 3 9 5 5 3 2 4 7 10 6 5 6 4 4 3 10 3 2 3 3 1 2 6 8 10 12 10 11 11
25 28 15 14 12 10 9 8 6 7 8 2 3 3 0 2 2 7 7 4 14 3 5 7 8 14 7 7 6 11 10 5 8 2 3 3 3 3 2 2 4 5 6 11 9 3 8
24 26 15 13 12 11 10 8 8 8 9 3 2 2 2 2 2 4 6 5 7 8 4 2 12 9 5 5 5 6 2 8 8 8 5 4 6 3 2 2 4 3 10 10 7 6 10
23 24 20 15 12 12 10 9 9 10 11 3 3 1 3 4 3 4 5 4 6 5 6 3 4 6 1 5 7 11 14 14 12 7 3 6 6 2 4 2 1 5 1 5 6 3 5
24 23 26 16 14 12 11 10 10 10 13 3 2 2 3 4 1 2 6 7 3 3 5 4 5 3 1 1 5 7 4 5 4 5 4 5 7 2 5 4 4 1 4 7 8 6 6
22 24 27 16 14 13 11 10 10 9 11 3 3 3 1 2 5 3 4 4 4 3 3 3 5 3 6 4 4 5 4 6 5 3 1 4 4 4 1 5 7 1 2 4 4 5 8
28 25 24 15 15 13 12 10 10 10 10 4 3 4 2 2 2 2 3 6 5 5 4 4 4 3 4 3 3 3 3 1 5 10 7 3 4 6 4 2 6 4 3 4 5 4 5
24 26 27 16 16 13 11 11 10 10 10 5 2 4 4 2 3 2 1 4 3 3 6 6 5 1 3 2 2 2 3 4 4 3 6 7 7 5 3 2 7 5 4 7 4 4 6
25 25 25 15 15 13 12 11 11 9 10 8 2 2 3 3 2 1 2 2 2 2 7 2 3 5 6 5 2 4 2 2 4 4 1 3 5 6 7 5 1 2 1 3 4 7 5
Wind_Direction
292 290 300 268 267 251 253 262 266 268 275 279 279 284 285 291 283 279 270 271 273 256 241 230 227 176 124 211 237 289 6 3 355 205 211 209 199 169 187 186 139 194 219 198 232 257 249
306 294 311 295 281 270 256 256 263 267 275 277 275 268 269 261 267 265 264 267 267 264 237 225 210 152 158 230 303 256 323 6 352 198 217 206 215 191 169 175 190 190 200 239 248 262 253
299 285 282 282 281 284 268 263 258 261 261 260 263 263 256 263 255 254 262 255 251 250 238 219 194 140 219 233 139 66 39 325 205 205 220 220 238 214 148 155 194 150 180 272 223 243 255
294 297 274 267 277 276 274 258 253 254 257 258 256 263 245 239 242 254 263 253 242 235 236 224 181 94 240 224 235 261 292 324 229 205 214 241 247 261 202 129 84 175 145 248 250 152 271
291 301 289 267 275 274 274 267 247 252 257 260 258 257 239 237 250 261 270 250 241 227 223 157 92 184 248 240 219 220 190 237 290 201 203 230 275 218 180 129 142 180 195 208 280 222 223
293 297 294 291 276 278 271 277 264 257 260 259 263 258 244 250 268 282 272 241 229 180 126 102 60 125 234 228 188 181 187 173 259 174 183 201 219 193 186 163 196 161 196 163 194 190 161
284 279 286 290 281 286 278 273 274 262 265 263 259 262 247 237 257 267 271 167 141 188 184 185 178 225 184 198 123 199 161 158 246 187 189 201 196 199 188 180 166 156 168 214 236 252 230
279 283 277 281 280 281 281 272 272 268 267 265 262 264 261 231 254 268 260 173 188 166 174 225 227 224 253 214 183 183 152 162 201 181 196 192 204 183 161 161 132 141 151 206 274 209 202
271 270 269 275 286 277 270 271 267 269 265 267 267 273 216 250 277 277 203 166 105 127 52 204 212 207 201 193 233 181 178 185 196 168 194 201 186 167 166 167 169 168 160 163 209 313 213
270 276 274 261 274 276 268 264 259 264 265 267 268 266 219 292 275 108 205 117 84 59 212 211 186 232 202 155 219 191 192 179 194 184 197 236 224 164 166 180 169 206 189 102 93 36 267
270 276 278 270 267 260 257 262 257 257 254 261 274 270 246 175 323 208 135 118 113 82 247 144 161 236 166 174 132 201 185 207 179 148 195 215 181 175 175 182 162 189 161 161 209 200 32
259 269 272 276 256 261 253 259 262 254 253 247 250 260 241 213 203 181 151 136 125 180 240 182 155 164 158 172 198 147 176 224 229 146 201 236 177 154 181 156 156 152 79 54 38 47 275
257 263 263 274 277 268 273 253 262 260 254 244 247 240 210 173 256 124 126 125 164 235 119 157 171 157 159 163 189 163 182 201 182 146 198 193 146 96 111 129 59 129 117 49 55 211 227
252 259 265 263 264 261 275 261 257 276 284 258 251 240 215 202 141 146 136 182 224 150 175 210 133 145 171 142 209 175 168 204 226 257 156 199 162 152 152 188 150 160 145 166 189 190 236
250 251 256 267 267 265 271 273 249 275 285 279 298 246 216 192 159 170 114 207 248 161 164 159 131 159 201 179 159 166 184 196 192 227 157 184 185 148 168 146 141 201 167 135 111 55 80
249 252 245 258 262 267 276 288 256 281 289 295 222 215 225 160 155 141 119 240 238 213 184 150 129 168 184 178 170 156 180 188 192 234 242 171 104 174 120 105 40 153 145 146 300 185 222
244 249 231 250 263 254 264 278 266 288 313 103 146 201 166 152 140 185 223 238 247 193 149 162 121 146 176 159 228 161 176 164 190 212 213 154 107 100 121 203 165 144 126 173 168 133 162
255 243 220 242 256 233 256 259 254 284 107 122 157 219 141 150 174 190 195 207 238 175 186 191 130 158 157 149 176 194 195 223 182 187 175 212 127 128 173 41 173 148 158 198 145 201 93
318 254 219 230 241 225 245 253 238 238 167 128 193 134 141 229 222 224 181 221 230 169 209 168 135 156 150 152 175 179 188 212 185 199 179 187 129 113 110 38 11 186 149 181 119 82 178
325 276 216 220 225 221 237 241 213 218 162 110 151 157 142 224 244 272 191 215 195 124 175 114 133 112 144 173 134 173 183 190 166 201 213 124 127 152 183 165 136 173 157 175 157 168 171
324 291 206 214 216 213 225 230 213 200 175 109 175 231 177 196 229 227 230 180 214 173 258 260 174 178 171 138 118 141 176 118 104 145 105 140 138 121 1 175 146 168 177 182 194 200 203
321 320 225 208 209 203 212 218 216 195 157 148 213 182 313 249 246 172 179 192 204 184 196 197 196 176 188 153 187 183 150 151 157 148 125 358 185 133 99 150 158 183 198 194 211 176 250
315 318 260 203 205 201 200 213 216 189 158 178 251 286 133 215 188 190 192 176 199 156 203 268 146 148 174 172 173 136 116 109 136 132 124 148 121 135 194 174 134 288 206 187 202 197 203
312 313 310 197 201 204 194 209 217 199 179 151 223 133 126 250 175 228 132 114 180 212 140 8 42 108 0 106 104 71 66 67 120 56 69 131 88 321 145 153 195 241 41 189 156 189 182
311 314 320 197 195 202 198 208 221 210 182 152 201 162 193 260 180 158 124 118 135 78 71 58 19 26 89 55 82 71 25 76 51 37 36 88 170 145 147 191 284 271 199 157 171 228 188
315 317 320 205 192 197 201 212 219 215 185 132 219 145 187 183 237 135 129 162 133 90 67 39 18 5 33 47 84 126 176 164 175 102 69 86 77 112 59 158 202 239 184 174 139 275 178
332 321 310 212 198 194 197 210 217 215 187 153 239 165 133 200 261 166 159 164 121 93 91 128 155 40 13 76 53 143 142 155 151 160 169 94 30 144 194 210 287 231 162 156 115 251 114
317 315 309 220 199 190 191 202 215 217 185 152 235 178 155 141 305 338 30 134 104 128 143 177 112 144 62 79 105 202 142 200 110 156 173 156 151 176 105 118 263 152 118 166 163 51 114
317 314 307 251 197 188 186 196 210 215 186 164 230 182 151 101 162 305 77 4 323 173 128 32 137 158 169 111 172 118 143 160 144 188 7 196 179 178 170 210 236 23 16 88 116 121 137